CDT,Max TemperatureF,Mean TemperatureF,Min TemperatureF,Max Dew PointF,MeanDew PointF,Min DewpointF,Max Humidity, Mean Humidity, Min Humidity, Max Sea Level PressureIn, Mean Sea Level PressureIn, Min Sea Level PressureIn, Max VisibilityMiles, Mean VisibilityMiles, Min VisibilityMiles, Max Wind SpeedMPH, Mean Wind SpeedMPH, Max Gust SpeedMPH,PrecipitationIn, CloudCover, Events, WindDirDegrees
2013-10-1,82,70,57,69,63,56,97,82,56,30.13,30.08,30.03,10,9,6,8,2,,0.01,2,,157
2013-10-2,84,70,59,69,63,59,100,86,51,30.16,30.11,30.05,10,6,1,6,1,,0.00,1,,136
2013-10-3,84,72,61,66,64,61,100,83,53,30.12,30.08,30.02,10,6,0,8,2,,0.00,0,Fog,152
2013-10-4,84,74,64,68,66,63,93,78,56,30.13,30.08,30.05,10,9,6,8,3,,0.00,3,,139
2013-10-5,87,75,64,69,66,63,93,75,53,30.09,30.03,29.94,10,9,6,12,4,,0.01,0,,143
2013-10-6,78,66,55,72,64,53,94,86,71,29.96,29.91,29.83,10,8,0,16,8,34,0.58,7,Fog-Rain,236
2013-10-7,70,60,50,54,49,46,97,74,46,30.09,30.01,29.94,10,10,10,14,5,18,0.01,0,,4
2013-10-8,79,63,48,60,51,45,90,68,43,30.11,30.07,30.04,10,10,2,9,5,,0.00,2,,39
2013-10-9,79,68,57,62,56,50,93,71,50,30.19,30.13,30.09,10,10,10,13,5,20,0.00,6,,108
2013-10-10,81,68,57,61,59,56,93,78,50,30.16,30.09,30.03,10,10,10,6,1,,0.00,4,,306
2013-10-11,81,67,54,60,55,50,96,76,35,30.10,30.04,30.01,10,9,6,6,1,,0.01,0,,251
2013-10-12,82,65,48,64,55,48,100,83,46,30.12,30.08,30.03,10,6,0,10,1,,0.00,0,Fog,303
2013-10-13,84,68,55,61,57,55,100,79,41,30.22,30.17,30.12,10,7,0,10,2,,0.01,1,Fog,31
2013-10-14,82,70,59,64,60,56,93,75,47,30.23,30.16,30.09,10,9,4,8,3,,0.00,2,,76
2013-10-15,78,68,61,60,58,57,90,73,52,30.12,30.07,30.01,10,10,10,10,6,18,0.00,3,Rain,138
2013-10-16,68,64,63,66,63,59,100,91,81,30.05,29.98,29.93,10,7,1,12,5,,0.55,8,Rain,173
2013-10-17,64,56,48,64,57,46,100,92,75,30.03,29.96,29.89,10,6,0,13,3,,0.10,6,Fog-Rain,323
2013-10-18,68,55,44,53,47,43,100,89,54,30.10,30.04,29.98,10,4,0,5,1,,0.00,4,Fog,24
2013-10-19,69,56,43,54,49,41,96,80,57,30.07,29.99,29.94,10,9,5,14,4,25,0.01,3,,319
2013-10-20,66,51,36,44,39,32,97,74,28,30.13,30.08,30.04,10,10,9,7,3,,0.01,0,,360
2013-10-21,71,54,36,52,43,35,97,71,31,30.12,30.06,30.01,10,10,8,7,2,,0.00,0,,199
2013-10-22,66,56,46,52,49,46,100,81,59,30.03,29.98,29.91,10,8,0,8,2,,0.00,3,Fog,307
2013-10-23,60,49,37,46,39,32,93,67,36,30.14,30.05,29.91,10,10,10,15,8,23,0.00,1,,315
2013-10-24,64,50,36,43,39,34,97,71,43,30.34,30.21,30.14,10,10,10,12,3,,0.00,5,,354
2013-10-25,55,42,30,32,28,24,89,65,30,30.50,30.42,30.36,10,10,10,12,4,16,0.00,0,,16
2013-10-26,64,46,28,43,32,25,93,67,30,30.35,30.26,30.15,10,9,7,8,2,,0.01,2,,210
2013-10-27,71,61,52,52,47,42,77,64,47,30.14,30.11,30.08,10,10,9,10,3,,0.00,7,,186
2013-10-28,71,62,54,56,54,50,97,78,56,30.26,30.20,30.11,10,9,4,9,4,,0.02,7,Rain,186
2013-10-29,78,63,48,59,53,48,100,89,50,30.31,30.26,30.19,10,4,0,10,1,,0.01,2,Fog,139
2013-10-30,82,67,55,59,55,52,93,69,39,30.27,30.18,30.09,10,9,5,15,3,,0.00,1,,166
2013-10-31,75,68,64,66,60,53,94,76,61,30.06,29.84,29.71,10,10,2,26,13,38,0.18,6,Rain,182